Weather History for KCAR - May, 2014

Change the Weather History Date:

Friday, May 16, 2014

  Actual Average Record
Temperature  
Mean Temperature 68 °F 52 °F  
Max Temperature 78 °F 63 °F 81 °F (1986)
Min Temperature 58 °F 41 °F 30 °F (1949)
Degree Days  
Heating Degree Days 0 13  
Month to date heating degree days 244 257  
Since 1 July heating degree days 9266 9023  
Cooling Degree Days 3 0  
Month to date cooling degree days 3 0  
Year to date cooling degree days 3 0  
Growing Degree Days 18 (Base 50)    
Moisture  
Dew Point 55 °F    
Average Humidity 70    
Maximum Humidity 93    
Minimum Humidity 46    
Precipitation  
Precipitation 0.00 in 0.11 in 1.67 in (1997)
Month to date precipitation 1.04 1.60  
Year to date precipitation 15.07 11.69  
Snow  
Snow 0.00 in 0.00 in 0.00 in (2002)
Month to date snowfall 0.0 0.4  
Since 1 July snowfall 150.7 108.6  
Snow Depth 0.00 in    
Sea Level Pressure  
Sea Level Pressure 30.15 in    
Wind  
Wind Speed 13 mph (SSE)    
Max Wind Speed 25 mph    
Max Gust Speed 32 mph    
Visibility 10 miles    
Events      
T = Trace of Precipitation, MM = Missing Value Source: NWS Daily Summary

Daily Weather History Graph

Daily Weather History Graph

Search for Another Location

Airport or City:

Trip Planner

Search our weather history database for the weather conditions in past years. The results will help you decide how hot, cold, wet, or windy it might be!

Date:

Astronomy

May. 16, 2014 Rise Set
Actual Time 4:55 AM EDT 8:01 PM EDT
Civil Twilight 4:19 AM EDT 8:37 PM EDT
Nautical Twilight 3:33 AM EDT 9:24 PM EDT
Astronomical Twilight 2:36 AM EDT 10:22 PM EDT
Moon 10:04 PM EDT (5/16) 6:34 AM EDT (5/16)
Length of Visible Light 16h 17m
Length of Day
15h 05m
Waning Gibbous, 95% of the Moon is Illuminated
May 16
Waning Gibbous
May 21
Last Quarter
May 28
New
Jun 5
First Quarter
Jun 13
Full

Hourly Weather History & Observations

Time (EDT) Temp. Dew Point Humidity Pressure Visibility Wind Dir Wind Speed Gust Speed Precip Events Conditions
12:54 AM 59.0 °F 54.0 °F 83% 30.18 in 10.0 mi South 10.4 mph - N/A   Mostly Cloudy
1:41 AM 59.0 °F 55.0 °F 87% 30.14 in 10.0 mi South 8.1 mph - N/A   Scattered Clouds
1:54 AM 59.0 °F 55.0 °F 87% 30.15 in 10.0 mi SSE 6.9 mph - N/A   Mostly Cloudy
2:54 AM 60.1 °F 57.0 °F 90% 30.15 in 10.0 mi SSE 9.2 mph - N/A   Overcast
3:54 AM 60.1 °F 57.0 °F 90% 30.15 in 10.0 mi South 6.9 mph - N/A   Overcast
4:54 AM 60.1 °F 55.9 °F 86% 30.16 in 10.0 mi SSE 8.1 mph - N/A   Overcast
5:05 AM 60.1 °F 55.9 °F 86% 30.15 in 10.0 mi SE 8.1 mph - N/A   Overcast
5:54 AM 59.0 °F 57.0 °F 93% 30.17 in 10.0 mi SSE 8.1 mph - N/A   Overcast
6:01 AM 60.1 °F 57.0 °F 90% 30.16 in 10.0 mi South 6.9 mph - N/A   Overcast
6:31 AM 60.1 °F 57.0 °F 90% 30.16 in 10.0 mi South 10.4 mph - N/A   Overcast
6:41 AM 60.1 °F 55.9 °F 86% 30.16 in 10.0 mi South 8.1 mph - N/A   Overcast
6:54 AM 60.1 °F 55.9 °F 86% 30.18 in 10.0 mi SE 8.1 mph - N/A   Overcast
7:54 AM 60.1 °F 57.0 °F 90% 30.18 in 10.0 mi South 6.9 mph - N/A   Overcast
8:47 AM 62.1 °F 57.9 °F 86% 30.17 in 10.0 mi SSE 10.4 mph - N/A   Overcast
8:54 AM 62.1 °F 57.0 °F 84% 30.18 in 10.0 mi SSE 10.4 mph - N/A   Overcast
9:54 AM 62.1 °F 57.0 °F 84% 30.19 in 10.0 mi South 8.1 mph - N/A   Overcast
10:12 AM 63.0 °F 57.9 °F 84% 30.17 in 10.0 mi SSE 10.4 mph - N/A   Overcast
10:54 AM 66.0 °F 57.9 °F 75% 30.18 in 10.0 mi SSW 10.4 mph 20.7 mph N/A   Overcast
11:54 AM 68.0 °F 57.0 °F 68% 30.17 in 10.0 mi SSE 13.8 mph 24.2 mph N/A   Overcast
12:30 PM 70.0 °F 57.0 °F 63% 30.16 in 10.0 mi South 13.8 mph 21.9 mph N/A   Overcast
12:54 PM 71.1 °F 55.9 °F 59% 30.16 in 10.0 mi SE 12.7 mph - N/A   Overcast
1:54 PM 77.0 °F 55.0 °F 47% 30.13 in 10.0 mi South 15.0 mph 26.5 mph N/A   Mostly Cloudy
2:54 PM 77.0 °F 55.0 °F 47% 30.12 in 10.0 mi SSE 23.0 mph 32.2 mph N/A   Scattered Clouds
3:54 PM 75.9 °F 54.0 °F 46% 30.12 in 10.0 mi SSE 19.6 mph 29.9 mph N/A   Partly Cloudy
4:54 PM 75.0 °F 54.0 °F 48% 30.11 in 10.0 mi SSE 21.9 mph 31.1 mph N/A   Partly Cloudy
5:54 PM 75.0 °F 54.0 °F 48% 30.10 in 10.0 mi SSE 19.6 mph 25.3 mph N/A   Clear
6:54 PM 72.0 °F 53.1 °F 51% 30.10 in 10.0 mi SSE 19.6 mph 27.6 mph N/A   Clear
7:54 PM 69.1 °F 52.0 °F 54% 30.12 in 10.0 mi South 15.0 mph 24.2 mph N/A   Clear
8:54 PM 66.9 °F 51.1 °F 57% 30.14 in 10.0 mi South 20.7 mph 26.5 mph N/A   Clear
9:54 PM 64.0 °F 51.1 °F 63% 30.15 in 10.0 mi South 12.7 mph 20.7 mph N/A   Clear
10:54 PM 62.1 °F 51.1 °F 67% 30.14 in 10.0 mi South 16.1 mph 24.2 mph N/A   Mostly Cloudy
11:54 PM 60.1 °F 51.1 °F 72% 30.15 in 10.0 mi South 13.8 mph - N/A   Partly Cloudy